[Iaude] MPEC T107: 2023 QM82 [a=20.97,e=0.90,i=37.0,H=18.6]
    mpec at marsden.cfa.harvard.edu 
    mpec at marsden.cfa.harvard.edu
       
    Sun Oct  8 11:21:41 EDT 2023
    
    
  
M.P.E.C. 2023-T107                              Issued 2023 October 8, 15:20 UT
     The Minor Planet Electronic Circulars contain information on unusual
         minor planets, routine data on comets and natural satellites,
         and occasional editorial announcements.  They are published
    on behalf of Division F of the International Astronomical Union by the
          Minor Planet Center, Smithsonian Astrophysical Observatory,
                          Cambridge, MA 02138, U.S.A.
			  
             Prepared using the Tamkin Foundation Computer Network
                              MPC at CFA.HARVARD.EDU
            URL https://www.minorplanetcenter.net/    ISSN 1523-6714
                                   2023 QM82                                    
Observations:
     K23Q82M KC2023 06 23.56859322 56 00.334+09 38 10.88         23.53GVET107F52
     K23Q82M KC2023 06 29.57016523 03 34.122+09 15 10.98         23.40GVET107F51
     K23Q82M* C2023 08 21.44589223 52 45.326-05 51 46.18         21.26wXET107F51
     K23Q82M  C2023 08 21.45783423 52 45.681-05 52 08.77         21.23wXET107F51
     K23Q82M  C2023 08 21.46977323 52 46.017-05 52 31.30         21.06wXET107F51
     K23Q82M  C2023 08 21.48175923 52 46.354-05 52 54.22         21.24wXET107F51
     K23Q82M  C2023 08 23.50927023 53 48.262-06 57 50.64         21.14wXET107F52
     K23Q82M  C2023 08 23.53233723 53 48.886-06 58 35.90         20.96wXET107F52
     K23Q82M  C2023 08 23.54382523 53 49.177-06 58 58.19         21.09wXET107F52
     K23Q82M  C2023 09 06.48406323 59 08.284-15 00 20.34         21.20wXET107F51
     K23Q82M  C2023 09 06.49507923 59 08.436-15 00 44.14         21.18wXET107F51
     K23Q82M  C2023 09 06.50609523 59 08.561-15 01 07.34         21.33wXET107F51
     K23Q82M 1C2023 09 07.37682523 59 22.841-15 32 07.01         20.93GVET107G96
     K23Q82M 1C2023 09 07.38196023 59 22.924-15 32 17.95         20.46GVET107G96
     K23Q82M 1C2023 09 07.38708523 59 22.967-15 32 28.68         21.08GVET107G96
     K23Q82M 1C2023 09 07.39223023 59 23.078-15 32 39.80         20.29GVET107G96
     K23Q82M  C2023 09 07.44995723 59 24.212-15 34 41.58         20.93wXET107F52
     K23Q82M  C2023 09 07.46219223 59 24.362-15 35 07.74         20.93wXET107F52
     K23Q82M  C2023 09 07.47438523 59 24.521-15 35 33.75         20.79wXET107F52
     K23Q82M  C2023 09 08.40266023 59 39.271-16 08 32.33         20.82wXET107F51
     K23Q82M  C2023 09 08.41450923 59 39.415-16 08 57.67         20.70wXET107F51
     K23Q82M  C2023 09 08.42632523 59 39.557-16 09 22.92         20.76wXET107F51
     K23Q82M  C2023 09 08.43812623 59 39.700-16 09 48.03         20.82wXET107F51
     K23Q82M 1C2023 09 14.67743 00 01 02.24 -19 48 05.9                VET107Q62
     K23Q82M 1C2023 09 14.68577 00 01 02.32 -19 48 23.0          20.2 GVET107Q62
     K23Q82M  C2023 09 15.43251200 01 11.126-20 14 01.19         20.90wXET107F51
     K23Q82M  C2023 09 15.44370600 01 11.211-20 14 23.97         20.88wXET107F51
     K23Q82M  C2023 09 15.45491000 01 11.295-20 14 46.89         20.86wXET107F51
     K23Q82M  C2023 09 15.46784400 01 11.401-20 15 13.37         20.95wXET107F51
     K23Q82M KC2023 09 18.43525 00 01 43.28 -21 54 27.7          20.1 RqET107E94
     K23Q82M KC2023 09 18.46439 00 01 43.49 -21 55 25.7          20.2 RqET107E94
     K23Q82M KC2023 09 19.37466 00 01 52.66 -22 25 09.8          19.8 RqET107E94
     K23Q82M KC2023 09 19.39241 00 01 52.91 -22 25 44.7          20.0 RqET107E94
     K23Q82M KC2023 09 19.41018 00 01 53.11 -22 26 20.5          19.9 RqET107E94
     K23Q82M KC2023 09 19.42795 00 01 53.23 -22 26 55.1          20.0 RqET107E94
Observer details:
E94 Possum Observatory, Gisborne.  Observer J. Drummond.  0.41-m f/4.5
    Newtonian + CCD.
F51 Pan-STARRS 1, Haleakala.  Observers J. Bulger, K. Chambers, T. Lowe, P.
    Minguez, A. Schultz, I. Smith.  Measurers S. Chastel, J. Fairlamb, M.
    Huber, Y. Ramanjooloo, R. Wainscoat, R. Weryk, K. Chambers, T. de Boer, H.
    Gao, C.-C. Lin, E. Magnier, J. Bulger, T. Lowe, P. Minguez, A. Schultz, I.
    Smith.  1.8-m Ritchey-Chretien + CCD.
F52 Pan-STARRS 2, Haleakala.  Observers J. Bulger, K. Chambers, T. Dukes, T.
    Lowe, P. Minguez, A. Schultz, I. Smith.  Measurers S. Chastel, J.
    Fairlamb, M. Huber, Y. Ramanjooloo, R. Wainscoat, R. Weryk, K. Chambers,
    T. de Boer, H. Gao, C.-C. Lin, E. Magnier.  1.8-m Ritchey-Chretien + CCD.
G96 Mt. Lemmon Survey.  Observer A. R. Gibbs.  Measurers E. J. Christensen, D.
    Fay, J. B. Fazekas, D. C. Fuls, A. R. Gibbs, A. D. Grauer, H. Groeller, J.
    K. Hogan, R. A. Kowalski, S. M. Larson, G. J. Leonard, D. Rankin, R. L.
    Seaman, A. Serrano, F. C. Shelly, K. W. Wierzchos.  1.5-m reflector + 10K
    CCD.
Q62 iTelescope Observatory, Siding Spring.  Observer H. Sato.  0.51-m f/6.8
    astrograph + CCD + f/4.5 focal reducer.
Orbital elements:
2023 QM82                                                                       
Epoch 2023 Sept. 13.0 TT = JDT 2460200.5                Bell                    
M 359.88560              (2000.0)            P               Q                  
n   0.01026023     Peri.  199.98063     +0.97541497     -0.05314779             
a  20.9748092      Node   159.20614     +0.00970722     +0.97990322             
e   0.9038582      Incl.   37.04506     -0.22016224     -0.19226281             
P  96.1            H   18.66          G   0.15           U   5                  
Residuals in seconds of arc
230623 F52  0.0   0.1+    230907 G96  0.2-  0.0     230914 Q62  0.3+  0.1-
230629 F51  0.0   0.2-    230907 G96  0.0   0.0     230915 F51  0.2+  0.1-
230821 F51  0.0   0.1-    230907 G96  0.3-  0.1+    230915 F51  0.2+  0.0
230821 F51  0.2+  0.0     230907 G96  0.3+  0.0     230915 F51  0.2+  0.1-
230821 F51  0.1+  0.1+    230907 F52  0.2+  0.1+    230915 F51  0.3+  0.1-
230821 F51  0.0   0.1-    230907 F52  0.1+  0.1+    230918 E94  0.3+  0.3+
230823 F52  0.1-  0.3+    230907 F52  0.2+  0.1+    230918 E94  0.2+  0.0
230823 F52  0.2+  0.0     230908 F51  0.1+  0.0     230919 E94  2.2-  0.7+
230823 F52  0.0   0.1+    230908 F51  0.1+  0.0     230919 E94  0.7-  0.6+
230906 F51  0.2+  0.1+    230908 F51  0.1+  0.0     230919 E94  0.2+  0.4-
230906 F51  0.2+  0.2-    230908 F51  0.2+  0.0     230919 E94  0.0   0.2-
230906 F51  0.1-  0.1+    230914 Q62  0.2+  0.1-
Ephemeris:
2023 QM82                a,e,i = 20.97, 0.90, 37                 q = 2.0166
Date    TT    R. A. (2000) Decl.     Delta      r    Elong.  Phase     V
2023 09 08    23 59 32.8 -15 54 08   1.0395  2.0251   163.1     8.3    20.9
...
2023 09 23    00 02 27.3 -24 19 47   1.0584  2.0166   155.9    11.7    21.0
...
2023 10 01    00 03 45.7 -28 05 57   1.0950  2.0181   148.5    15.0    21.2
...
2023 10 07    00 04 57.2 -30 27 40   1.1328  2.0220   142.9    17.4    21.4
2023 10 08    00 05 11.0 -30 48 49   1.1399  2.0228   141.9    17.7    21.4
2023 10 09    00 05 25.4 -31 09 14   1.1472  2.0238   141.0    18.1    21.4
...
2023 10 15    00 07 07.7 -32 56 36   1.1949  2.0308   135.5    20.1    21.6
...
2023 10 23    00 10 16.7 -34 40 31   1.2681  2.0437   128.7    22.3    21.8
...
2023 11 07    00 19 23.6 -36 08 56   1.4273  2.0785   117.4    25.1    22.2
M. P. C. Staff               (C) Copyright 2023 MPC           M.P.E.C. 2023-T107
    
    
More information about the Iaude
mailing list